Tracking 35274 objects as of 10-Sep-2026
HD Live streaming from Space Station
objects crossing your sky now

RADFXSAT-2 (AO-109)


RADFXSAT-2 (AO-109) is no longer on orbit
RADFXSAT-2 (AO-109) is classified as:


NORAD ID: 47311
Int'l Code: 2021-002C
Launch date: January 17, 2021
Source: United States (US)
Launch site: Pegasus launched from Western Range Air Space (WRAS)
Decay date: 2024-04-24

Uplink (MHz): 145.860-145.890
Downlink (MHz): 435.790-435.760
Beacon (MHz): 435.750
Mode: 1k2 BPSK SSB CW*
Call sign:
Status: Reentered


Uplink (MHz): 145.860-145.890
Downlink (MHz): 435.790-435.760
Beacon (MHz): 435.750
Mode: 1k2 BPSK SSB CW*
Call sign:
Status: Reentered


Uplink (MHz): 145.860-145.890
Downlink (MHz): 435.790-435.760
Beacon (MHz): 435.750
Mode: 1k2 BPSK SSB CW*
Call sign:
Status: Reentered

Your satellite tracking list
Your tracking list is empty




NASA's NSSDC Master Catalog

Two Line Element Set (TLE):
1 47311U 21002C   24112.58294100  .09167436  99880-5  88771-3 0  9999
2 47311  60.6450 276.5573 0006279 285.8230  74.2218 16.37785734182462
Source of the keplerian elements: AFSPC